[ ตารางข้อมูล ] [ Min-Max ] [ วันนี้4 ] [ วันนี้2 ] [ เทียบ3วัน A ] [ เทียบ4วัน B ]   

วันนี้2   [ ◀ ช่วงเก่ากว่า ] [ ช่วงที่ 174 ] [ ช่วงใหม่กว่า ▶ ] [ ล่าสุด ]    [ 3 ชั่วโมง ] [ 6 ชั่วโมง ] [ 12 ชั่วโมง ] [ 24 ชั่วโมง ]   วันนี้2

อุณภูมิตู้ Knockdown4529  ราย 3 ชั่วโมง  ที่วัดได้ ในช่วงวันเวลา 11/04/2026 (13:00) ถึง 11/04/2026 (16:00) 
ความชื้นในตู้ Knockdown4529  ราย 3 ชั่วโมง  ที่วัดได้ ในช่วงวันเวลา 11/04/2026 (13:00) ถึง 11/04/2026 (16:00) 

 
DS18B20SHTC3 
IDDate d/m/Y & Timedata1
สูง
data2
ต่ำ
data3
นอก
temp
pcb
hum
pcb
Time
 10895  11/04/2026 15:55:49  33.5  33.0  32.5  33.2  68.4  15:55 
 10894  11/04/2026 15:51:07  33.6  33.0  32.7  33.3  68.2  15:51 
 10893  11/04/2026 15:46:25  33.6  33.0  33.0  33.3  68.2  15:46 
 10892  11/04/2026 15:41:43  33.6  33.0  32.8  33.5  68.3  15:41 
 10891  11/04/2026 15:37:01  33.7  33.0  32.7  33.4  68.1  15:37 
 10890  11/04/2026 15:32:19  33.7  33.0  33.1  33.3  68.0  15:32 
 10889  11/04/2026 15:27:37  33.7  33.0  33.0  33.5  67.9  15:27 
 10888  11/04/2026 15:22:53  33.7  33.1  33.0  33.5  67.8  15:22 
 10887  11/04/2026 15:18:11  33.8  33.1  33.2  33.3  67.7  15:18 
 10886  11/04/2026 15:13:30  33.8  33.1  33.2  33.5  67.6  15:13 
 10885  11/04/2026 15:08:45  33.8  33.1  33.2  33.6  67.6  15:08 
 10884  11/04/2026 15:04:03  33.9  33.1  33.1  33.6  67.4  15:04 
 10883  11/04/2026 14:59:21  33.9  33.1  33.2  33.6  67.3  14:59 
 10882  11/04/2026 14:54:39  33.9  33.1  33.0  33.6  67.2  14:54 
 10881  11/04/2026 14:49:57  34.0  33.1  33.3  33.6  67.2  14:49 
 10880  11/04/2026 14:45:15  34.1  33.1  33.4  33.6  67.2  14:45 
 10879  11/04/2026 14:40:33  34.1  33.1  33.7  33.6  66.8  14:40 
 10878  11/04/2026 14:35:51  34.1  33.0  33.7  33.9  66.8  14:35 
 10877  11/04/2026 14:31:08  34.1  33.0  33.6  33.7  66.7  14:31 
 10876  11/04/2026 14:26:26  34.1  33.1  34.0  33.7  66.5  14:26 
 10875  11/04/2026 14:21:44  34.2  33.0  33.9  33.7  66.6  14:21 
 10874  11/04/2026 14:17:00  34.2  33.0  34.0  33.8  66.5  14:17 
 10873  11/04/2026 14:12:17  34.2  33.0  33.9  33.8  66.5  14:12 
 10872  11/04/2026 14:07:33  34.2  32.9  33.7  33.8  66.3  14:07 

Data every 5 minute.


ใช้เวลาประมวลผล 0.00176 วินาที